Weather History for KLUM - September, 2012

Change the Weather History Date:

Thursday, September 6, 2012

  Actual Average (KEAU) Record (KEAU)
Temperature  
Mean Temperature 65 °F 64 °F  
Max Temperature 80 °F 75 °F 100 °F (1922)
Min Temperature 50 °F 53 °F 37 °F (1988)
Degree Days  
Heating Degree Days 0 3  
Month to date heating degree days 16  
Since 1 July heating degree days 55  
Cooling Degree Days 0 3  
Month to date cooling degree days 18  
Year to date cooling degree days 545  
Growing Degree Days 15 (Base 50)    
Moisture  
Dew Point 48 °F    
Average Humidity 60    
Maximum Humidity 88    
Minimum Humidity 24    
Precipitation  
Precipitation 0.00 in 0.12 in 1.88 in (1899)
Month to date precipitation 0.74  
Year to date precipitation 22.86  
Snow  
Snow 0.00 in 0.00 in 0.00 in ()
Month to date snowfall 0.0  
Since 1 July snowfall 0.0  
Since 1 September snowfall 0.0  
Snow Depth -    
Sea Level Pressure  
Sea Level Pressure 29.93 in    
Wind  
Wind Speed 2 mph (WSW)    
Max Wind Speed 9 mph    
Max Gust Speed -    
Visibility 8 miles    
Events Rain    
T = Trace of Precipitation, MM = Missing Value Source: NWS Daily Summary

Daily Weather History Graph

Daily Weather History Graph

Search for Another Location

Airport or City:

Trip Planner

Search our weather history database for the weather conditions in past years. The results will help you decide how hot, cold, wet, or windy it might be!

Date:

Astronomy

Sep. 06, 2012 Rise Set
Actual Time 6:36 AM CDT 7:34 PM CDT
Civil Twilight 6:06 AM CDT 8:04 PM CDT
Nautical Twilight 5:30 AM CDT 8:39 PM CDT
Astronomical Twilight 4:53 AM CDT 9:16 PM CDT
Moon 10:26 PM CDT (9/6) 12:53 PM CDT (9/6)
Length of Visible Light 13h 57m
Length of Day
12h 58m
Waning Gibbous, 67% of the Moon is Illuminated
Sep 6
Waning Gibbous
Sep 8
Last Quarter
Sep 15
New
Sep 22
First Quarter
Sep 29
Full

Hourly Weather History & Observations

Time (CDT) Temp. Dew Point Humidity Pressure Visibility Wind Dir Wind Speed Gust Speed Precip Events Conditions
12:35 AM 59.0 °F 50.0 °F 72% 29.90 in 10.0 mi West 4.6 mph - N/A   Clear
12:55 AM 59.0 °F 50.0 °F 72% 29.91 in 10.0 mi West 4.6 mph - N/A   Clear
1:15 AM 59.0 °F 50.0 °F 72% 29.91 in 10.0 mi West 3.5 mph - N/A   Clear
1:35 AM 55.4 °F 50.0 °F 82% 29.91 in 10.0 mi Calm Calm - N/A   Clear
1:55 AM 55.4 °F 50.0 °F 82% 29.91 in 10.0 mi Calm Calm - N/A   Clear
2:15 AM 55.4 °F 48.2 °F 77% 29.91 in 10.0 mi Calm Calm - N/A   Clear
2:35 AM 55.4 °F 50.0 °F 82% 29.91 in 10.0 mi Calm Calm - N/A   Clear
2:55 AM 55.4 °F 48.2 °F 77% 29.92 in 10.0 mi Calm Calm - N/A   Clear
3:15 AM 53.6 °F 50.0 °F 88% 29.92 in 10.0 mi Calm Calm - N/A   Clear
3:35 AM 53.6 °F 50.0 °F 88% 29.93 in 10.0 mi Calm Calm - N/A   Clear
3:55 AM 53.6 °F 48.2 °F 82% 29.93 in 10.0 mi Calm Calm - N/A   Clear
4:15 AM 51.8 °F 48.2 °F 88% 29.93 in 1.5 mi Calm Calm - N/A   Mist
4:35 AM 53.6 °F 48.2 °F 82% 29.93 in 7.0 mi Calm Calm - N/A   Clear
4:55 AM 50.0 °F 46.4 °F 87% 29.94 in 1.0 mi Calm Calm - N/A   Mist
5:15 AM 50.0 °F 46.4 °F 87% 29.94 in 0.8 mi Calm Calm - N/A   Mist
5:35 AM 50.0 °F 46.4 °F 87% 29.94 in 2.5 mi Calm Calm - N/A   Clear
5:55 AM 50.0 °F 46.4 °F 87% 29.94 in 10.0 mi Calm Calm - N/A   Clear
6:15 AM 50.0 °F 46.4 °F 87% 29.95 in 10.0 mi Calm Calm - N/A   Clear
6:35 AM 50.0 °F 46.4 °F 87% 29.96 in 10.0 mi Calm Calm - N/A   Clear
6:55 AM 50.0 °F 46.4 °F 87% 29.96 in 10.0 mi Calm Calm - N/A   Clear
7:15 AM 50.0 °F 46.4 °F 87% 29.97 in 10.0 mi Calm Calm - N/A   Clear
7:35 AM 51.8 °F 48.2 °F 88% 29.98 in 10.0 mi Calm Calm - N/A   Clear
7:55 AM 53.6 °F 50.0 °F 88% 29.98 in 10.0 mi Calm Calm - N/A   Clear
8:15 AM 55.4 °F 50.0 °F 82% 29.98 in 7.0 mi Calm Calm - N/A   Clear
8:35 AM 59.0 °F 50.0 °F 72% 29.98 in 10.0 mi Calm Calm - N/A   Clear
8:55 AM 60.8 °F 50.0 °F 68% 29.98 in 10.0 mi WSW 4.6 mph - N/A   Clear
9:15 AM 62.6 °F 50.0 °F 63% 29.98 in 10.0 mi West 3.5 mph - N/A   Clear
9:35 AM 64.4 °F 48.2 °F 56% 29.98 in 10.0 mi WSW 3.5 mph - N/A   Clear
9:55 AM 68.0 °F 50.0 °F 52% 29.98 in 10.0 mi West 3.5 mph - N/A   Clear
10:15 AM 68.0 °F 50.0 °F 52% 29.99 in 10.0 mi WSW 3.5 mph - N/A   Clear
10:35 AM 69.8 °F 48.2 °F 46% 29.99 in 10.0 mi West 3.5 mph - N/A   Clear
10:55 AM 71.6 °F 48.2 °F 43% 29.99 in 10.0 mi Calm Calm - N/A   Clear
11:15 AM 73.4 °F 44.6 °F 36% 29.98 in 10.0 mi WSW 5.8 mph - N/A   Clear
11:35 AM 75.2 °F 44.6 °F 34% 29.98 in 10.0 mi WSW 6.9 mph - N/A   Clear
11:55 AM 75.2 °F 42.8 °F 31% 29.97 in 7.0 mi SW 4.6 mph - N/A   Clear
12:15 PM 77.0 °F 42.8 °F 29% 29.96 in 10.0 mi NW 4.6 mph - N/A   Clear
12:35 PM 77.0 °F 42.8 °F 29% 29.95 in 7.0 mi West 5.8 mph - N/A   Clear
12:55 PM 78.8 °F 42.8 °F 28% 29.95 in 5.0 mi SW 6.9 mph - N/A   Haze
1:15 PM 78.8 °F 41.0 °F 26% 29.94 in 5.0 mi South 4.6 mph - N/A   Haze
1:35 PM 78.8 °F 42.8 °F 28% 29.93 in 10.0 mi South 3.5 mph - N/A   Clear
1:55 PM 77.0 °F 41.0 °F 28% 29.93 in 10.0 mi WSW 6.9 mph - N/A   Clear
2:15 PM 78.8 °F 41.0 °F 26% 29.92 in 10.0 mi Calm Calm - N/A   Clear
2:35 PM 80.6 °F 41.0 °F 24% 29.91 in 4.0 mi SW 9.2 mph - N/A   Haze
2:55 PM 78.8 °F 41.0 °F 26% 29.92 in 2.0 mi SW 4.6 mph - N/A   Haze
3:15 PM 80.6 °F 41.0 °F 24% 29.91 in 10.0 mi SW 5.8 mph - N/A   Clear
3:55 PM 77.0 °F 42.8 °F 29% 29.90 in 10.0 mi SW 5.8 mph - N/A   Clear
4:15 PM 78.8 °F 42.8 °F 28% 29.88 in 4.0 mi South 5.8 mph - N/A   Haze
4:35 PM 78.8 °F 42.8 °F 28% 29.89 in 7.0 mi WSW 3.5 mph - N/A   Scattered Clouds
4:55 PM 77.0 °F 42.8 °F 29% 29.89 in 3.0 mi SSE 3.5 mph - N/A   Haze
5:15 PM 77.0 °F 42.8 °F 29% 29.91 in 10.0 mi West 9.2 mph - N/A   Mostly Cloudy
5:35 PM 75.2 °F 44.6 °F 34% 29.92 in 10.0 mi West 5.8 mph - N/A   Overcast
5:55 PM 75.2 °F 44.6 °F 34% 29.90 in 10.0 mi SW 3.5 mph - N/A   Mostly Cloudy
6:15 PM 73.4 °F 44.6 °F 36% 29.90 in 10.0 mi SSW 5.8 mph - N/A   Mostly Cloudy
6:35 PM 73.4 °F 46.4 °F 38% 29.93 in 10.0 mi WSW 8.1 mph - N/A   Mostly Cloudy
6:55 PM 71.6 °F 51.8 °F 50% 29.91 in 10.0 mi WSW 4.6 mph - N/A Rain Rain
7:15 PM 71.6 °F 51.8 °F 50% 29.91 in 10.0 mi Calm Calm - N/A   Mostly Cloudy
7:35 PM 68.0 °F 55.4 °F 64% 29.91 in 10.0 mi NNW 8.1 mph - N/A Rain Light Rain
7:55 PM 66.2 °F 55.4 °F 68% 29.93 in 10.0 mi NW 3.5 mph - N/A Rain Light Rain
8:15 PM 66.2 °F 55.4 °F 68% 29.93 in 10.0 mi WSW 4.6 mph - N/A Rain Light Rain
8:35 PM 64.4 °F 55.4 °F 73% 29.93 in 10.0 mi NNW 4.6 mph - N/A   Overcast
8:55 PM 64.4 °F 55.4 °F 73% 29.93 in 10.0 mi Calm Calm - N/A   Overcast
9:15 PM 64.4 °F 55.4 °F 73% 29.93 in 10.0 mi Calm Calm - N/A   Overcast
9:35 PM 64.4 °F 53.6 °F 68% 29.91 in 3.0 mi Calm Calm - N/A   Haze
9:55 PM 62.6 °F 55.4 °F 77% 29.91 in 3.0 mi Calm Calm - N/A   Haze
10:15 PM 62.6 °F 55.4 °F 77% 29.90 in 2.5 mi Calm Calm - N/A   Haze
10:35 PM 62.6 °F 55.4 °F 77% 29.90 in 2.5 mi Calm Calm - N/A   Haze
10:55 PM 62.6 °F 55.4 °F 77% 29.90 in 10.0 mi Calm Calm - N/A   Overcast
11:35 PM 62.6 °F 57.2 °F 82% 29.90 in 10.0 mi Calm Calm - N/A   Overcast
11:55 PM 62.6 °F 57.2 °F 82% 29.92 in 10.0 mi NNW 5.8 mph - N/A   Overcast